Change the Weather History Date:

Tuesday, March 5, 2013

  Actual Average (PACD) Record (PACD)
Temperature  
Mean Temperature 36 °F 30 °F  
Max Temperature 39 °F 35 °F 45 °F (1955)
Min Temperature 34 °F 25 °F -2 °F (1972)
Degree Days  
Heating Degree Days 28 35  
Month to date heating degree days 175  
Since 1 July heating degree days 6399  
Cooling Degree Days 0    
Month to date cooling degree days  
Year to date cooling degree days  
Moisture  
Dew Point 32 °F    
Average Humidity 84    
Maximum Humidity 100    
Minimum Humidity 58    
Precipitation  
Precipitation 0.02 in 0.09 in 0.68 in (1991)
Month to date precipitation 0.49  
Year to date precipitation 6.63  
Snow  
Snow 0.00 in 0.50 in 5.60 in (2010)
Month to date snowfall 2.2  
Since 1 July snowfall 54.4  
Snow Depth -    
Sea Level Pressure  
Sea Level Pressure 29.88 in    
Wind  
Wind Speed 6 mph (South)    
Max Wind Speed 20 mph    
Max Gust Speed 26 mph    
Visibility 10 miles    
Events Rain    
T = Trace of Precipitation, MM = Missing Value Source: NWS Daily Summary

Daily Weather History Graph

Daily Weather History Graph

Search for Another Location

Airport or City:

Trip Planner

Search our weather history database for the weather conditions in past years. The results will help you decide how hot, cold, wet, or windy it might be!

Date:

Astronomy

Mar. 05, 2013 Rise Set
Actual Time 7:32 AM HAST 6:38 PM HAST
Civil Twilight 6:56 AM HAST 7:14 PM HAST
Nautical Twilight 6:14 AM HAST 7:56 PM HAST
Astronomical Twilight 5:32 AM HAST 8:39 PM HAST
Moon 3:41 AM HAST (3/5) 11:45 AM HAST (3/5)
Length of Visible Light 12h 18m
Length of Day
11h 06m
Last Quarter, 39% of the Moon is Illuminated
Mar 5
Last Quarter
Mar 11
New
Mar 19
First Quarter
Mar 27
Full
Apr 2
Last Quarter

Hourly Weather History & Observations

Time (HAST) Temp. Windchill Dew Point Humidity Pressure Visibility Wind Dir Wind Speed Gust Speed Precip Events Conditions
12:01 AM 37.0 °F 34.5 °F 36.0 °F 96% 29.96 in 10.0 mi NW 3.5 mph - 0.00 in   Overcast
1:01 AM 35.6 °F 30.7 °F 35.6 °F 100% 29.68 in 10.0 mi NNE 5.8 mph - N/A   Overcast
1:09 AM 35.6 °F 29.9 °F 35.6 °F 100% 29.68 in 10.0 mi NNE 6.9 mph - N/A   Overcast
1:25 AM 35.6 °F - 35.6 °F 100% 29.68 in 10.0 mi Calm Calm - N/A   Overcast
1:49 AM 35.6 °F 31.7 °F 35.6 °F 100% 29.68 in 10.0 mi SW 4.6 mph - N/A   Overcast
2:01 AM 36.0 °F - 35.1 °F 97% 29.97 in 10.0 mi Calm Calm - N/A   Overcast
3:01 AM 36.0 °F - 34.0 °F 93% 29.96 in 10.0 mi Calm Calm - N/A   Overcast
4:01 AM 35.6 °F 30.7 °F 35.6 °F 100% 29.68 in 9.0 mi North 5.8 mph - 0.00 in Rain Light Rain
4:25 AM 35.6 °F 30.7 °F 33.8 °F 93% 29.68 in 10.0 mi WNW 5.8 mph - 0.00 in Rain Light Rain
4:33 AM 35.6 °F 30.7 °F 33.8 °F 93% 29.68 in 10.0 mi WNW 5.8 mph - 0.00 in Rain Light Rain
4:53 AM 35.6 °F 30.7 °F 33.8 °F 93% 29.69 in 10.0 mi West 5.8 mph - 0.00 in   Overcast
6:01 AM 35.6 °F 32.8 °F 33.8 °F 93% 29.70 in 10.0 mi SSW 3.5 mph - 0.00 in Rain Light Rain
7:01 AM 34.0 °F - 32.0 °F 92% 29.99 in 10.0 mi Calm Calm - 0.01 in   Overcast
8:01 AM 34.0 °F 28.0 °F 32.0 °F 92% 30.00 in 7.0 mi East 6.9 mph - 0.00 in Rain Light Rain
9:01 AM 35.1 °F - 34.0 °F 96% 30.00 in 10.0 mi Calm Calm - 0.00 in   Overcast
10:01 AM 37.9 °F 34.4 °F 35.1 °F 89% 30.01 in 10.0 mi East 4.6 mph - N/A   Overcast
11:01 AM 37.9 °F - 35.1 °F 89% 30.01 in 10.0 mi Calm Calm - N/A   Partly Cloudy
12:01 PM 37.4 °F 32.1 °F 32.0 °F 81% 29.73 in 10.0 mi SSE 6.9 mph - 0.01 in   Overcast
1:01 PM 37.4 °F 30.3 °F 30.2 °F 75% 29.73 in 10.0 mi SSE 10.4 mph - 0.01 in   Scattered Clouds
2:01 PM 39.9 °F 32.1 °F 28.9 °F 65% 30.02 in 10.0 mi SSE 13.8 mph 17.3 mph 0.01 in   Clear
3:01 PM 39.9 °F 33.4 °F 26.1 °F 58% 30.01 in 10.0 mi South 10.4 mph 16.1 mph N/A   Clear
4:01 PM 39.0 °F 32.8 °F 28.0 °F 65% 30.00 in 10.0 mi South 9.2 mph - N/A   Clear
5:01 PM 37.9 °F 33.5 °F 28.0 °F 68% 30.01 in 10.0 mi SSE 5.8 mph - N/A   Clear
6:01 PM 37.0 °F 34.5 °F 26.1 °F 65% 30.02 in 10.0 mi SW 3.5 mph - N/A   Clear
7:01 PM 35.1 °F 32.2 °F 25.0 °F 67% 30.04 in 10.0 mi SSW 3.5 mph - N/A   Clear
8:01 PM 36.0 °F 25.3 °F 27.0 °F 70% 30.05 in 10.0 mi SSE 19.6 mph 25.3 mph N/A   Clear
9:01 PM 37.0 °F 29.8 °F 28.0 °F 70% 30.06 in 10.0 mi SSE 10.4 mph 16.1 mph 0.00 in   Partly Cloudy
10:01 PM 37.0 °F 29.3 °F 30.0 °F 76% 30.07 in 10.0 mi SSE 11.5 mph 20.7 mph 0.00 in Rain Light Rain
10:25 PM 37.4 °F 28.5 °F 30.2 °F 75% 29.78 in 10.0 mi SSE 15.0 mph 26.5 mph 0.00 in Rain Light Rain
11:01 PM 37.0 °F 27.7 °F 30.0 °F 76% 30.05 in 10.0 mi SSE 16.1 mph 21.9 mph 0.00 in Rain Light Rain
11:11 PM 37.4 °F 28.2 °F 30.2 °F 75% 29.76 in 10.0 mi SSE 16.1 mph 25.3 mph 0.00 in   Scattered Clouds